Location: Unspecified
(0.0000°N, 0.0000°E)
Time: 12:09:48
(UTC+00:00)

STARLINK 1056 - Pass Details

Date: 11 December 2019
Orbit: 449 x 451 km, 53.0° (Epoch: 11 December)

Event Time Altitude Azimuth Distance (km) Brightness Sun altitude
Rises 19:38:25 0° 201° (SSW) 2,444 7.6 -24.1°
Reaches altitude 10° 19:40:40 10° 192° (SSW) 1,570 6.4 -24.6°
Enters shadow 19:41:58 19° 179° (S) 1,112 5.4 -24.9°
